Location: Beccas
(43.4309°N, 0.1528°E)
Time: 11:03:10
(UTC+00:00)

YAOGAN 1 - Pass Details

Date: 15 October 2021
Orbit: 618 x 620 km, 97.9° (Epoch: 07 December)

Event Time Altitude Azimuth Distance (km) Brightness Sun altitude
Rises 17:46:05 0° 131° (SE) 2,885 5.6 -6.2°
Reaches altitude 10° 17:48:37 10° 117° (ESE) 1,985 4.7 -6.7°
Maximum altitude 17:51:58 22° 66° (ENE) 1,354 3.8 -7.3°
Drops below altitude 10° 17:55:19 10° 15° (NNE) 1,997 5.0 -7.9°
Sets 17:57:52 0° 1° (N) 2,908 6.0 -8.3°
